星链-3660 (STARLINK-3660 )

导读

STARLINK-3660是美国太空探索技术公司(SpaceX)星链星座中的一颗卫星,于2022年3月9日发射升空,属于星链互联网星座组网卫星,主要用于为全球提供高速低延迟互联网接入服务,尤其服务偏远地区和网络基础设施薄弱区域,是Starlink大规模星座部署过程中的组成部分。

基本信息
目录编号:
51977
目录名称:
STARLINK-3660
国际标识:
2022-025X
轨道中心:
EARTH
卫星名称:
星链-3660
卫星全名:
星链-3660 (STARLINK-3660 )
卫星状态:
在轨 (已飞行1640 天)
发射日期:
2022-03-09 UTC
国别 :
美国 (US)
星等 :
--
轨道信息
数据来源 国际轨道数据
星历时间: 2026-09-04T11:27:46+0800
11小时前
查看轨道信息
半长轴: 6848.838km
偏心率: 0.0001414
轨道倾角: 53.158°
近地点辐角 55.499°
升交点赤经 287.041°
平近点角 304.615°
近地点: 469.732km
远地点: 471.67km
周期: 94.012分钟
每日圈数: 15.317131
详细信息
固有亮度:
5
最大亮度:
2.5
卫星平台:
Starlink v1.5
覆盖范围:
全球
运营商:
太空探索技术公司
运营商所在国:
美国
制造商(研发单位):
太空探索技术公司
制造商所在国:
美国
使用方式:
暂无
卫星简介
星链(Starlink)计划是由太空探索技术公司(SpaceX)提出的一个巨型低轨卫星互联网星座项目,计划在2019年至2024年间在太空搭建由约1.2万颗卫星组成的“星链”网络,其中1584颗将部署在地球上空550千米处的近地轨道,并从2020年开始工作。该卫星仍在工作。
2D轨道图
3D轨道图
轨道高度分析图
轨道倾角分析图
轨道综合分析图
查看轨道综合分析图
交会数据列表
事件ID 空间交会对象 最接近时刻(TCA) 交会距离 交会风险概率(CRP) 交会风险指数(CRI) 操作
CDM_260905-031105-197706-264822
LIME (62648)
2026-09-05T
03:11:38+0000
0.611 km
远距离
8.412852E-5 中风险 0.73
CDM_260906-052405-197706-780521
2026-09-06T
05:24:18+0000
2.602 km
极远距离
1.620979E-6 低风险 0.39
CDM_260906-114405-197706-891521
2026-09-06T
11:44:04+0000
2.768 km
极远距离
1.482184E-6 低风险 0.38
CDM_260906-163405-197706-486521
2026-09-06T
16:34:52+0000
2.975 km
极远距离
1.350501E-6 低风险 0.38
CDM_260906-032505-197705-718621
OBJECT W (57186)
2026-09-06T
03:25:46+0000
2.602 km
极远距离
1.085947E-6 低风险 0.36
CDM_260906-212505-197706-757521
2026-09-06T
21:25:19+0000
2.746 km
极远距离
9.818096E-7 极低风险 0.35
CDM_260906-132905-197706-567421
2026-09-06T
13:29:20+0000
2.741 km
极远距离
9.002787E-7 极低风险 0.34
CDM_260905-184405-197706-773121
2026-09-05T
18:44:15+0000
2.956 km
极远距离
8.410977E-7 极低风险 0.33